Regional Weather Roundup
Issued by NWS Raleigh/Durham, NC

Home | Current Version | Previous Version | Text Only | Print | Product List | Glossary On
Versions: 1 2 3 4 5 6 7 8 9 10 11 12 13 14 15 16 17 18 19 20 21 22 23 24 25 26 27 28
000
ASUS42 KRAH 270210
RWRRAH
NORTH CAROLINA WEATHER ROUNDUP
NATIONAL WEATHER SERVICE RALEIGH NC
1000 PM EDT TUE JUL 26 2016

NOTE: "FAIR" INDICATES FEW OR NO CLOUDS BELOW 12,000 FEET WITH NO
SIGNIFICANT WEATHER AND/OR OBSTRUCTIONS TO VISIBILITY.

NCZ001-053-055-056-065-067-270300-
WESTERN NORTH CAROLINA

CITY           SKY/WX    TMP DP  RH WIND       PRES   REMARKS
ASHEVILLE      CLOUDY    77  70  79 VRB3      30.11R
JEFFERSON      MOCLDY    76  66  70 W5        30.15R
MORGANTON      PTCLDY    77  72  84 CALM      30.08R
HICKORY        PTCLDY    78  72  81 SW3       30.02R
RUTHERFORDTON    N/A     76  76 100 CALM      30.03R
MOUNT AIRY     CLOUDY    82  76  83 CALM      30.04R
BOONE          CLOUDY    74  66  75 W7        30.18R
$$

NCZ021-022-025-041-071-084-088-270300-
CENTRAL NORTH CAROLINA

CITY           SKY/WX    TMP DP  RH WIND       PRES   REMARKS
CHARLOTTE      CLOUDY    84  71  65 N3        29.99R
GREENSBORO     CLOUDY    83  74  74 CALM      29.99R
WINSTON-SALEM  CLOUDY    82  74  76 CALM      30.01R
RALEIGH-DURHAM CLOUDY    78  73  84 W12       29.99R THUNDER
FORT BRAGG     CLEAR     89  71  54 SW6       29.96S
FAYETTEVILLE   CLEAR     86  73  65 S7        29.97R
BURLINGTON     PTCLDY    82  72  71 CALM      29.97R
LAURINBURG     CLEAR     86  73  65 S7        29.98R
$$

NCZ011-015-027-028-043-044-047-080-103-270300-
NORTHEASTERN NORTH CAROLINA

CITY           SKY/WX    TMP DP  RH WIND       PRES   REMARKS
ROCKY MT-WILSO CLOUDY    83  78  85 CALM      29.96R
GREENVILLE     CLOUDY    86  77  74 SW8       29.98R HX  97
WASHINGTON     CLEAR     84  77  79 S6        29.96R
ELIZABETH CITY CLOUDY    78  74  87 CALM      29.94R
MANTEO         NOT AVBL
CAPE HATTERAS  CLOUDY    83  76  79 SW10G20   29.95F
$$

NCZ078-087-090-091-093-098-101-270300-
SOUTHEASTERN NORTH CAROLINA

CITY           SKY/WX    TMP DP  RH WIND       PRES   REMARKS
LUMBERTON      CLEAR     83  75  77 SE3       29.98R
GOLDSBORO      CLEAR     86  76  71 S5        29.95R HX  96
KINSTON        CLEAR     84  75  74 S7        29.97R
KENANSVILLE    NOT AVBL
NEW BERN       CLEAR     81  75  82 S7        29.98R
CHERRY POINT   CLEAR     82  74  76 SW10      29.98R
BEAUFORT       CLEAR     83  78  85 SW16      29.97F
JACKSONVILLE   CLEAR     81  74  79 SW6       29.98R
WILMINGTON     CLEAR     82  76  81 S9        29.99R
$$





USA.gov is the U.S. government's official web portal to all federal, state and local government web resources and services.